SCP
3 3 3 3 3 2 2 2 2 2 2 2 2 2 2 2 2 2 2 2 2 2 2 1 1 1 1 1 1 1 1 1 1 1 0 0 0 0 0 0 0 1 1
3 2 2 2 3 3 3 3 3 3 2 2 2 2 2 2 2 2 2 2 2 2 2 1 1 1 1 1 1 1 1 1 1 1 1 0 0 0 0 0 0 0 1
2 2 1 1 2 3 4 4 4 3 3 2 2 2 2 2 1 1 1 2 2 2 2 1 1 2 2 1 1 1 1 1 1 1 1 1 0 0 0 0 0 0 0
1 1 1 1 1 2 2 3 3 3 2 2 2 2 2 1 1 1 1 1 1 1 1 1 2 2 2 1 1 1 1 1 1 1 1 1 0 0 0 0 0 0 0
1 1 1 1 1 1 1 1 2 2 1 1 2 2 2 2 1 1 1 1 1 1 1 2 2 2 2 1 1 1 1 1 1 1 1 1 1 0 0 0 0 0 0
2 1 1 1 0 0 0 1 1 1 1 1 1 1 2 2 2 2 1 1 1 1 1 1 2 2 2 1 1 1 1 1 1 1 1 1 1 1 0 0 0 0 0
1 1 1 1 0 0 0 0 0 0 0 0 1 1 1 2 2 1 1 1 1 1 1 1 1 1 1 1 1 1 1 1 1 1 1 1 1 1 1 1 0 0 0
0 0 1 0 0 0 0 0 0 0 0 0 1 1 1 1 1 1 1 0 0 0 0 1 1 1 1 1 1 1 0 1 1 1 1 1 1 1 1 1 0 0 0
0 0 0 0 0 0 0 0 0 0 0 0 1 0 0 0 1 0 0 0 0 0 0 0 0 1 1 1 1 0 0 0 0 0 0 0 0 0 0 0 0 0 0
0 0 0 0 0 0 0 0 0 0 0 0 0 0 0 0 0 0 0 0 0 0 0 0 0 0 0 0 0 0 0 0 0 0 0 0 0 0 0 0 0 0 0
0 0 0 0 0 0 0 0 0 0 0 0 0 0 0 0 0 0 0 0 0 0 0 0 0 0 0 0 0 0 0 0 0 0 0 0 0 0 0 0 0 0 0
0 0 0 0 0 0 0 0 0 0 0 0 0 0 0 0 0 0 0 0 0 0 0 0 0 0 0 0 0 0 0 0 0 0 0 0 0 0 0 0 0 0 0
0 0 0 0 0 0 0 0 0 0 0 0 0 0 0 0 0 0 0 0 0 0 0 0 0 0 0 0 0 0 0 0 0 0 0 0 0 0 0 0 0 0 0
0 0 0 0 0 0 0 0 0 0 0 0 0 0 0 0 0 0 0 0 0 0 0 0 0 0 0 0 0 0 0 0 0 0 0 0 0 0 0 0 0 0 0
0 0 0 0 0 0 0 0 0 0 0 0 0 0 0 0 0 0 0 0 0 0 0 0 0 0 0 0 0 0 0 0 0 0 0 0 0 0 0 0 0 0 0
0 0 0 0 0 0 0 0 0 0 0 0 0 0 0 0 0 0 0 0 0 0 0 0 0 0 0 0 0 0 0 0 0 0 0 0 0 0 0 0 0 0 0
0 0 0 0 0 0 0 0 0 0 0 0 0 0 0 0 0 0 0 0 0 0 0 0 0 0 0 0 0 0 0 0 0 0 0 0 0 0 0 0 0 0 0
0 0 0 0 0 0 0 0 0 0 0 0 0 0 0 0 0 0 0 0 0 0 0 0 0 0 0 0 0 0 0 0 0 0 0 0 0 0 0 0 0 0 0
0 0 0 0 0 0 0 0 0 0 0 0 0 0 0 0 0 0 0 0 0 0 0 0 0 0 0 0 0 0 0 0 0 0 0 0 0 0 0 0 0 0 0
0 0 0 0 0 0 0 0 0 0 0 0 0 0 0 0 0 0 0 0 0 0 0 0 0 0 0 0 0 0 0 0 0 0 0 0 0 0 0 0 0 0 0
0 0 0 0 0 0 0 0 0 0 0 0 0 0 0 0 0 0 0 0 0 0 0 0 0 0 0 0 0 0 0 0 0 0 0 0 0 0 0 0 0 0 0
0 0 0 0 0 0 0 0 0 0 0 0 0 0 0 0 0 0 0 0 0 0 0 0 0 0 0 0 0 0 0 0 0 0 0 0 0 0 0 0 0 0 0
0 0 0 0 0 0 0 0 0 0 0 0 0 0 0 0 0 0 0 0 0 0 0 0 0 0 0 0 0 0 0 0 0 0 0 0 0 0 0 0 0 0 0
0 0 0 0 0 0 0 0 0 0 0 0 0 0 0 0 0 0 0 0 0 0 0 0 0 0 0 0 0 0 0 0 0 0 0 0 0 0 0 0 0 0 0
0 0 0 0 0 0 0 0 0 0 0 0 0 0 0 0 0 0 0 0 0 0 0 0 0 0 0 0 0 0 0 0 0 0 0 0 0 0 0 0 0 0 0
0 0 0 0 0 0 0 0 0 0 0 0 0 0 0 0 0 0 0 0 0 0 0 0 0 0 0 0 0 0 0 0 0 0 0 0 0 0 0 0 0 0 0
Wind_Speed
8 8 7 7 7 6 6 5 4 3 2 2 2 2 2 2 2 2 3 3 3 3 3 2 3 2 1 1 1 0 1 0 1 2 1 1 1 1 1 1 1 2 2
9 8 7 7 7 6 6 6 5 4 4 2 1 1 2 2 2 2 3 3 4 4 3 3 2 3 2 2 2 1 0 0 1 1 1 1 2 2 1 1 1 2 2
10 8 8 7 6 6 5 5 5 5 5 4 3 3 3 3 3 3 2 3 3 4 3 3 3 3 2 2 1 1 0 1 1 0 2 2 2 1 1 1 1 1 2
9 8 8 7 6 5 5 6 6 6 5 5 4 4 3 2 2 1 2 3 4 4 3 3 3 3 2 2 2 1 0 1 1 1 0 1 2 2 0 1 1 2 2
10 9 8 7 6 5 5 5 6 6 6 5 4 4 4 2 2 2 3 3 3 4 4 3 3 3 2 2 3 2 1 0 1 1 1 0 0 1 2 1 0 1 2
9 9 8 8 6 5 5 5 6 6 5 6 5 5 4 4 4 3 3 2 2 3 4 4 3 3 3 3 2 2 2 1 1 1 1 1 2 2 2 2 2 1 1
9 9 8 7 6 5 4 4 5 5 5 5 5 5 4 4 4 2 2 2 2 3 4 4 3 3 3 3 3 3 3 2 1 1 1 1 2 2 2 2 2 1 1
8 8 8 7 6 5 4 4 4 4 4 4 4 4 4 3 2 2 2 2 2 2 3 3 4 3 3 4 3 3 3 2 2 1 1 1 1 1 2 3 3 2 1
9 9 8 7 6 5 5 4 4 4 4 4 4 4 4 3 3 3 3 2 2 2 3 3 4 4 4 4 3 3 3 3 2 2 2 1 0 0 1 2 3 4 3
9 8 8 7 6 5 4 4 4 4 4 4 4 4 4 3 3 3 4 3 3 3 4 4 4 4 4 4 3 3 3 3 3 2 2 2 1 1 1 1 1 2 3
9 8 7 7 6 5 5 5 4 4 3 4 4 4 3 3 4 4 3 3 3 4 4 4 4 4 5 4 4 4 4 4 4 4 3 3 2 1 1 1 2 2 3
9 8 7 7 6 5 5 4 3 3 3 3 3 3 3 4 4 4 3 3 4 4 4 4 4 5 5 4 4 4 4 4 4 4 4 4 3 3 2 2 2 2 3
10 8 7 7 6 5 4 4 3 3 2 3 3 3 3 3 3 3 3 3 4 4 5 4 5 5 5 5 5 4 4 4 4 4 4 3 3 3 2 2 2 2 3
10 9 7 6 6 5 4 4 3 2 2 3 3 3 2 2 2 3 3 4 4 4 4 4 4 4 5 5 5 4 4 4 4 4 4 3 3 2 2 2 3 4 5
9 9 8 6 6 5 4 3 3 2 2 3 2 2 2 2 3 4 4 4 4 4 4 4 5 5 4 5 4 4 4 4 4 5 4 4 5 5 3 2 3 4 4
9 9 8 7 6 6 5 4 3 2 3 3 1 1 2 2 2 3 3 4 4 4 5 5 5 6 5 7 7 5 4 4 4 4 4 4 5 6 6 6 6 6 6
10 9 8 7 6 5 5 4 3 2 2 2 2 2 3 3 2 3 3 4 4 4 4 4 5 5 6 8 8 7 4 4 4 4 4 4 5 5 4 6 8 7 7
9 8 7 6 5 4 4 4 3 3 3 2 2 2 2 2 2 3 3 3 3 3 3 3 4 4 6 8 8 7 5 5 5 5 4 4 4 5 5 6 7 6 5
8 8 7 6 5 5 5 5 3 3 3 2 2 2 2 3 2 2 2 2 2 2 2 2 3 4 5 7 7 6 4 4 5 5 5 5 5 7 8 7 7 7 5
8 7 7 6 6 5 5 5 3 3 2 2 2 2 2 2 2 2 1 1 1 1 2 3 3 3 4 6 6 5 3 4 4 4 5 7 7 7 7 6 6 6 3
8 8 8 6 5 5 5 5 3 3 2 2 2 2 2 2 1 2 1 1 2 2 3 3 3 4 4 6 6 6 3 2 3 3 3 4 7 8 8 6 4 3 3
8 8 7 5 4 5 6 5 3 2 3 3 3 2 2 1 2 2 2 2 2 2 2 3 3 4 4 6 6 7 6 4 3 2 2 3 6 6 6 4 4 5 5
8 7 7 6 4 4 5 5 3 3 4 3 2 2 3 3 2 2 2 2 2 2 2 2 2 3 3 5 8 9 9 8 4 2 3 5 6 6 4 4 5 4 3
7 6 7 6 4 4 4 4 4 4 4 3 2 2 2 2 3 3 2 2 2 2 2 2 1 1 2 3 4 4 4 6 5 4 5 6 6 5 4 3 3 2 1
6 6 7 6 5 4 4 4 3 4 4 2 1 1 1 1 2 2 2 1 0 1 2 2 2 2 1 2 2 2 2 2 3 3 3 4 3 4 3 3 2 1 1
6 6 6 6 5 5 4 3 3 4 4 2 1 1 1 1 1 1 2 3 1 1 1 3 3 1 1 1 1 3 3 3 3 3 3 2 2 1 1 1 1 1 0
Wind_Direction
118 108 98 89 82 71 65 56 53 36 54 73 76 75 66 60 49 51 54 51 44 44 46 34 21 21 22 349 338 84 110 126 121 101 46 353 16 59 94 149 148 152 154
118 109 97 84 78 74 68 57 47 37 38 47 59 83 93 75 65 52 51 51 47 42 45 36 29 22 20 20 13 30 177 227 153 147 150 304 349 6 22 85 144 157 152
133 125 110 94 82 69 65 66 48 41 38 43 60 63 53 45 39 36 30 27 43 44 38 28 32 26 32 16 354 5 33 258 284 165 157 168 206 293 353 20 63 127 128
131 126 115 102 93 82 69 61 52 43 35 39 66 79 81 73 39 35 41 28 34 33 30 26 26 22 22 10 346 11 308 236 255 279 261 187 158 164 204 344 14 49 86
135 128 122 115 103 89 75 63 55 45 37 41 55 73 72 65 50 46 45 33 22 18 19 24 21 16 10 3 356 342 338 274 244 231 221 180 150 149 161 197 350 30 41
133 124 116 110 98 85 74 66 61 47 39 44 50 64 73 68 59 46 41 28 13 6 11 16 13 10 6 356 347 343 345 310 260 254 214 191 189 181 167 174 165 109 29
136 129 122 114 107 98 84 71 69 52 41 49 49 54 65 70 69 55 47 36 18 5 2 11 9 4 356 354 1 4 354 342 300 254 249 227 220 187 166 155 156 144 85
137 131 126 122 119 111 96 81 75 56 44 54 52 47 52 60 59 48 47 41 24 359 358 8 11 7 1 5 10 11 356 1 354 342 303 251 252 191 175 163 153 144 115
137 130 125 123 122 114 104 94 81 60 55 65 62 53 47 56 59 50 43 33 13 7 11 14 15 8 5 10 15 14 3 7 5 2 4 9 327 157 166 158 162 159 163
128 124 123 122 118 114 106 94 85 72 68 68 63 63 49 49 50 49 40 30 18 19 21 21 21 16 14 17 22 10 4 21 7 11 25 19 8 49 86 144 141 145 148
130 128 127 124 118 107 101 95 84 75 73 70 64 60 49 44 43 40 32 31 26 24 27 25 26 23 19 15 22 20 21 25 18 17 28 24 27 49 38 71 104 110 118
129 128 126 121 115 107 102 98 90 86 83 80 69 63 56 50 46 38 29 34 33 27 30 32 31 29 23 18 29 29 26 31 25 17 24 19 29 40 35 57 81 102 113
131 127 123 123 120 116 111 105 97 91 81 80 75 64 57 55 42 29 27 34 38 32 31 37 34 29 24 23 27 36 33 33 28 22 26 17 33 38 38 56 79 101 104
138 134 129 127 126 126 122 118 111 98 88 82 75 62 51 46 36 35 36 37 41 42 38 37 33 31 30 28 27 36 39 36 31 28 28 24 36 45 60 75 92 106 107
144 139 136 135 134 131 129 126 116 101 97 88 73 51 48 46 41 41 40 40 41 45 44 42 33 26 30 25 27 30 41 39 34 28 25 30 47 50 60 90 108 116 115
150 143 141 139 141 141 140 130 119 113 101 95 85 56 55 53 48 48 45 48 44 42 46 45 41 35 30 27 35 36 40 39 40 32 21 26 33 40 56 80 97 115 126
149 150 149 146 146 146 141 137 130 114 98 90 72 66 64 63 47 55 55 48 44 47 46 42 41 33 20 30 36 45 52 46 42 38 30 31 32 37 58 76 80 80 96
144 144 140 139 137 134 129 124 116 112 101 86 72 74 83 67 53 60 54 41 41 45 40 40 36 31 19 30 39 48 52 51 45 41 40 48 34 41 70 80 73 69 68
140 139 139 135 131 130 130 119 111 107 98 87 85 76 82 77 64 57 45 35 49 39 30 35 39 33 10 22 43 55 50 49 40 36 39 46 50 51 70 79 78 69 60
128 129 126 122 125 130 127 118 117 105 102 104 100 87 85 83 72 55 35 30 58 49 42 41 32 36 20 21 44 58 60 52 37 30 30 41 54 56 66 80 87 81 69
127 126 124 126 135 135 125 122 120 126 136 115 98 85 79 82 83 50 29 44 55 49 39 34 20 25 23 24 41 57 68 69 55 37 21 21 42 54 60 73 88 100 99
129 128 128 131 137 134 128 128 138 147 120 102 89 79 69 54 71 56 32 38 55 54 42 37 24 13 11 25 37 55 68 77 75 45 11 12 31 40 46 60 71 75 82
136 134 135 134 135 138 136 138 155 138 116 100 83 71 61 45 48 59 51 43 50 63 55 64 42 8 5 15 35 47 53 56 62 30 13 14 23 30 34 39 53 64 75
137 136 136 138 145 147 142 145 143 132 122 119 100 78 66 47 35 42 57 74 69 76 80 94 87 26 12 7 10 21 30 33 31 15 4 13 19 30 28 20 28 46 93
140 141 146 150 155 149 147 151 143 132 133 137 131 115 102 93 59 46 47 86 102 185 154 161 158 135 57 319 4 52 30 15 2 1 16 18 10 10 7 6 3 14 46
142 144 148 151 155 152 157 167 160 147 141 142 152 165 157 147 135 95 17 14 26 41 113 150 151 163 193 231 11 21 10 356 4 39 21 357 347 338 331 331 344 359 333